Temp
-5 -4 -5 -5 -4 -5 -5 -5 -5 -5 -5 -4 -4 -4 -4 -4 -4 -4 -4 -4 -4 -4 -5 -4 -5 -5 -5 -5 -5 -5 -5 -5 -5 -6 -6 -6 -6 -6 -6 -6 -7 -7 -7
-5 -5 -5 -4 -4 -4 -4 -5 -5 -4 -4 -4 -4 -4 -4 -4 -4 -4 -4 -4 -4 -4 -4 -5 -5 -5 -5 -5 -5 -5 -5 -5 -5 -6 -6 -6 -6 -6 -6 -6 -6 -6 -7
-5 -5 -4 -5 -4 -4 -5 -5 -4 -5 -4 -4 -4 -4 -4 -4 -3 -3 -4 -4 -4 -4 -5 -5 -5 -5 -5 -5 -5 -5 -5 -5 -5 -5 -5 -6 -6 -5 -5 -5 -6 -6 -6
-5 -5 -5 -5 -5 -5 -5 -5 -5 -5 -4 -4 -4 -4 -3 -4 -4 -4 -4 -4 -4 -4 -4 -5 -5 -5 -5 -5 -5 -5 -5 -5 -5 -5 -5 -5 -5 -5 -5 -5 -5 -5 -6
-5 -5 -5 -5 -5 -4 -5 -5 -5 -4 -4 -3 -4 -3 -3 -3 -3 -3 -3 -3 -4 -4 -4 -5 -5 -5 -5 -6 -5 -5 -5 -5 -5 -5 -5 -5 -4 -5 -5 -5 -5 -5 -5
-5 -5 -4 -5 -5 -4 -5 -5 -5 -4 -4 -4 -4 -4 -3 -3 -3 -3 -4 -4 -4 -4 -4 -5 -5 -5 -5 -6 -5 -5 -5 -5 -5 -5 -5 -5 -5 -5 -5 -5 -5 -5 -5
-5 -5 -5 -5 -5 -5 -5 -5 -5 -5 -4 -4 -4 -3 -3 -3 -3 -3 -4 -4 -4 -4 -5 -5 -5 -5 -5 -6 -5 -5 -5 -5 -5 -5 -5 -5 -5 -5 -5 -5 -5 -5 -5
-5 -5 -5 -5 -5 -5 -5 -5 -5 -5 -4 -4 -4 -3 -3 -4 -3 -4 -4 -4 -4 -4 -5 -5 -5 -5 -5 -5 -5 -5 -5 -5 -5 -5 -5 -5 -5 -5 -5 -5 -5 -5 -5
-5 -5 -5 -5 -5 -5 -5 -5 -5 -5 -5 -4 -4 -4 -3 -3 -4 -4 -4 -4 -4 -4 -5 -5 -5 -5 -5 -5 -5 -5 -5 -5 -5 -6 -6 -6 -5 -5 -5 -5 -5 -6 -6
-5 -5 -5 -6 -5 -5 -5 -5 -6 -5 -5 -5 -4 -4 -3 -3 -4 -4 -4 -4 -4 -4 -5 -5 -5 -5 -5 -6 -5 -5 -5 -6 -6 -6 -6 -6 -6 -6 -6 -5 -5 -6 -6
-5 -5 -5 -6 -6 -5 -5 -5 -5 -5 -5 -5 -5 -4 -3 -3 -3 -4 -4 -4 -4 -4 -5 -5 -5 -5 -5 -5 -5 -5 -5 -6 -6 -6 -6 -6 -6 -6 -6 -6 -6 -6 -6
-5 -5 -5 -5 -6 -6 -6 -6 -6 -5 -5 -5 -4 -4 -4 -3 -3 -4 -4 -4 -4 -4 -5 -5 -5 -5 -5 -4 -4 -5 -5 -6 -6 -6 -6 -6 -6 -6 -6 -5 -6 -6 -6
-5 -5 -5 -5 -6 -6 -5 -6 -6 -5 -5 -5 -4 -4 -3 -4 -4 -3 -3 -3 -4 -4 -4 -5 -5 -5 -5 -4 -4 -5 -5 -6 -6 -6 -6 -6 -6 -6 -6 -6 -6 -6 -6
-6 -6 -5 -5 -5 -6 -6 -6 -6 -5 -5 -5 -3 -3 -3 -3 -4 -4 -4 -3 -4 -4 -4 -5 -5 -5 -5 -4 -5 -5 -5 -5 -5 -5 -5 -5 -5 -5 -6 -6 -6 -6 -6
-6 -6 -6 -6 -6 -6 -6 -6 -6 -6 -6 -5 -4 -4 -3 -3 -4 -4 -3 -4 -3 -4 -4 -5 -5 -5 -5 -5 -5 -5 -5 -5 -5 -5 -5 -5 -5 -5 -5 -6 -6 -6 -6
-6 -6 -6 -6 -6 -6 -6 -6 -5 -5 -6 -5 -4 -5 -4 -3 -4 -4 -3 -3 -3 -4 -5 -5 -5 -4 -5 -5 -5 -5 -5 -5 -5 -5 -5 -5 -5 -5 -5 -5 -6 -6 -6
-6 -6 -6 -6 -6 -6 -6 -6 -6 -6 -6 -6 -4 -5 -4 -4 -3 -3 -4 -4 -3 -3 -4 -4 -4 -4 -4 -5 -5 -5 -5 -5 -5 -5 -5 -5 -5 -5 -6 -6 -6 -6 -6
-6 -6 -5 -5 -6 -6 -6 -6 -6 -7 -5 -6 -5 -5 -5 -4 -4 -3 -4 -3 -3 -3 -4 -3 -4 -4 -4 -4 -4 -5 -5 -5 -5 -5 -5 -5 -5 -6 -6 -6 -7 -7 -6
-6 -5 -5 -5 -5 -6 -6 -6 -6 -6 -6 -6 -5 -6 -5 -4 -4 -4 -3 -3 -3 -3 -3 -3 -3 -3 -4 -4 -5 -5 -5 -5 -5 -6 -5 -5 -6 -6 -6 -6 -6 -6 -6
-6 -5 -5 -4 -5 -6 -6 -6 -7 -6 -6 -6 -6 -6 -5 -4 -4 -4 -3 -3 -3 -3 -3 -3 -3 -3 -4 -4 -4 -5 -5 -5 -5 -5 -5 -5 -6 -6 -6 -7 -7 -7 -7
-6 -6 -5 -5 -5 -6 -6 -7 -7 -7 -7 -6 -6 -6 -5 -4 -4 -4 -3 -3 -3 -3 -3 -3 -3 -3 -4 -4 -4 -4 -5 -5 -5 -5 -5 -5 -6 -6 -6 -6 -7 -7 -7
-5 -5 -5 -5 -6 -6 -6 -6 -6 -6 -6 -6 -6 -6 -5 -5 -4 -4 -4 -3 -3 -3 -3 -3 -3 -3 -4 -4 -4 -5 -5 -5 -5 -5 -5 -5 -6 -6 -6 -7 -7 -8 -8
-4 -5 -5 -5 -6 -6 -6 -6 -7 -6 -6 -6 -6 -6 -5 -4 -4 -4 -4 -3 -3 -3 -3 -4 -3 -4 -4 -4 -4 -5 -5 -5 -6 -6 -6 -6 -6 -6 -6 -7 -7 -8 -8
-5 -5 -5 -5 -5 -6 -6 -7 -7 -7 -6 -6 -6 -6 -5 -4 -4 -5 -4 -4 -3 -3 -3 -4 -4 -4 -4 -4 -4 -5 -5 -5 -5 -5 -5 -5 -6 -7 -7 -7 -8 -8 -8
-6 -5 -5 -5 -5 -5 -6 -6 -6 -6 -6 -7 -7 -6 -5 -4 -5 -5 -4 -4 -4 -3 -3 -3 -4 -4 -4 -4 -5 -5 -5 -5 -4 -5 -5 -5 -6 -7 -7 -8 -8 -8 -8
-6 -6 -6 -6 -6 -6 -6 -7 -6 -6 -7 -7 -6 -6 -6 -5 -5 -5 -5 -4 -4 -4 -3 -3 -4 -4 -4 -4 -4 -4 -5 -5 -5 -5 -5 -5 -6 -6 -7 -8 -8 -8 -8
Height
5954 5955 5956 5953 5950 5952 5951 5950 5949 5948 5950 5948 5947 5946 5945 5944 5942 5941 5939 5937 5935 5933 5930 5927 5925 5923 5921 5919 5916 5914 5911 5910 5908 5907 5904 5901 5899 5896 5894 5894 5892 5890 5890
5954 5954 5955 5956 5953 5952 5952 5952 5951 5951 5952 5949 5950 5948 5947 5945 5944 5943 5942 5940 5938 5936 5933 5931 5928 5926 5923 5921 5919 5917 5914 5912 5910 5909 5907 5904 5902 5899 5897 5895 5893 5891 5891
5954 5954 5954 5954 5954 5953 5952 5953 5953 5954 5953 5951 5951 5951 5949 5947 5946 5945 5945 5944 5942 5939 5937 5934 5931 5928 5925 5923 5920 5918 5917 5915 5913 5911 5909 5908 5905 5903 5900 5898 5897 5895 5894
5953 5954 5954 5954 5956 5955 5954 5953 5955 5955 5954 5954 5953 5953 5953 5951 5949 5947 5948 5947 5945 5943 5940 5937 5934 5931 5928 5926 5923 5921 5919 5917 5916 5914 5912 5910 5908 5906 5904 5903 5901 5900 5898
5951 5951 5953 5954 5956 5955 5956 5955 5956 5955 5954 5953 5953 5955 5955 5953 5952 5951 5950 5949 5947 5945 5942 5940 5936 5934 5930 5927 5925 5922 5921 5919 5917 5917 5915 5913 5911 5909 5908 5908 5906 5904 5904
5949 5949 5951 5953 5953 5955 5956 5956 5957 5956 5955 5956 5954 5955 5955 5953 5952 5951 5950 5950 5947 5946 5945 5942 5939 5935 5932 5929 5926 5923 5922 5920 5919 5918 5917 5915 5914 5913 5911 5911 5910 5908 5907
5947 5948 5949 5951 5953 5954 5956 5956 5957 5957 5955 5956 5955 5955 5955 5954 5953 5952 5952 5951 5952 5948 5945 5943 5940 5937 5933 5930 5927 5924 5923 5922 5921 5921 5919 5918 5917 5917 5915 5915 5913 5912 5909
5943 5945 5946 5948 5950 5953 5955 5955 5956 5957 5956 5955 5955 5955 5956 5956 5954 5953 5951 5950 5951 5949 5947 5945 5941 5938 5935 5932 5928 5926 5925 5924 5923 5923 5922 5921 5919 5918 5918 5917 5915 5914 5912
5941 5942 5943 5946 5948 5950 5953 5955 5956 5956 5956 5956 5954 5955 5955 5955 5954 5953 5952 5950 5951 5950 5947 5944 5941 5939 5936 5932 5931 5930 5928 5926 5925 5924 5924 5923 5921 5919 5918 5917 5916 5915 5914
5940 5940 5942 5944 5946 5948 5950 5953 5954 5955 5955 5955 5955 5954 5955 5955 5955 5954 5953 5951 5949 5948 5948 5945 5942 5939 5936 5934 5934 5931 5929 5928 5926 5925 5924 5922 5921 5920 5918 5918 5917 5917 5915
5937 5938 5940 5943 5943 5946 5948 5950 5952 5954 5954 5954 5954 5954 5955 5955 5955 5953 5952 5953 5952 5950 5947 5945 5943 5940 5938 5937 5934 5933 5932 5930 5928 5926 5924 5923 5922 5921 5920 5919 5918 5917 5916
5934 5936 5937 5939 5941 5942 5944 5947 5949 5951 5952 5952 5952 5954 5955 5954 5954 5953 5951 5952 5951 5949 5948 5945 5943 5940 5939 5938 5936 5934 5932 5931 5929 5927 5926 5925 5924 5923 5921 5919 5918 5916 5915
5931 5932 5933 5935 5937 5938 5941 5943 5945 5948 5950 5951 5949 5953 5954 5954 5954 5953 5951 5952 5951 5948 5947 5945 5943 5940 5939 5939 5937 5935 5933 5931 5929 5928 5926 5925 5924 5922 5921 5919 5918 5916 5914
5929 5929 5930 5931 5933 5934 5937 5939 5941 5944 5946 5948 5946 5950 5952 5953 5953 5952 5952 5951 5951 5948 5945 5944 5943 5941 5939 5939 5939 5936 5935 5932 5930 5928 5927 5925 5924 5923 5921 5921 5919 5916 5914
5926 5926 5927 5928 5928 5931 5933 5934 5936 5939 5942 5945 5945 5946 5950 5951 5952 5951 5951 5950 5950 5949 5946 5942 5941 5940 5940 5940 5939 5937 5936 5933 5931 5930 5929 5928 5927 5924 5923 5921 5918 5917 5914
5923 5922 5923 5924 5925 5926 5928 5929 5930 5933 5938 5941 5942 5944 5947 5949 5951 5950 5950 5948 5948 5949 5947 5944 5941 5940 5940 5939 5938 5938 5936 5935 5933 5932 5931 5930 5929 5927 5925 5922 5920 5917 5913
5919 5919 5919 5920 5921 5921 5924 5925 5926 5930 5935 5937 5939 5941 5944 5945 5949 5950 5949 5947 5947 5947 5946 5943 5940 5939 5939 5939 5939 5937 5937 5935 5934 5933 5933 5931 5930 5928 5926 5923 5920 5916 5912
5914 5915 5915 5915 5916 5918 5919 5922 5924 5927 5930 5933 5934 5937 5941 5942 5945 5947 5948 5947 5946 5946 5944 5942 5941 5941 5940 5939 5938 5939 5938 5937 5936 5934 5934 5932 5930 5928 5925 5922 5918 5915 5911
5909 5909 5909 5909 5910 5912 5914 5917 5920 5922 5923 5927 5930 5933 5938 5940 5943 5945 5946 5945 5945 5944 5943 5943 5941 5940 5939 5939 5940 5940 5939 5939 5936 5934 5934 5931 5929 5928 5925 5921 5917 5913 5909
5903 5903 5903 5903 5904 5906 5908 5910 5913 5915 5918 5921 5924 5928 5934 5938 5941 5942 5944 5944 5944 5943 5942 5943 5942 5941 5941 5940 5939 5939 5939 5938 5937 5937 5934 5932 5929 5926 5923 5921 5917 5912 5908
5895 5896 5897 5897 5899 5900 5901 5902 5907 5910 5912 5913 5918 5923 5930 5935 5938 5939 5941 5943 5943 5942 5941 5942 5942 5942 5941 5940 5939 5939 5939 5938 5938 5936 5933 5931 5927 5924 5922 5919 5914 5908 5904
5888 5889 5890 5891 5892 5894 5896 5897 5901 5904 5907 5908 5913 5920 5927 5932 5934 5936 5938 5940 5940 5941 5940 5940 5941 5940 5940 5940 5941 5940 5939 5937 5937 5935 5933 5930 5926 5923 5919 5915 5910 5905 5901
5880 5881 5884 5887 5888 5889 5891 5890 5895 5899 5903 5905 5909 5917 5924 5927 5931 5932 5935 5936 5938 5939 5939 5939 5939 5939 5939 5939 5939 5938 5938 5936 5933 5931 5928 5926 5924 5921 5917 5913 5909 5905 5899
5874 5875 5878 5882 5885 5886 5887 5888 5891 5896 5900 5901 5906 5914 5918 5924 5927 5929 5932 5934 5935 5935 5936 5937 5938 5937 5938 5938 5937 5937 5937 5936 5935 5933 5931 5928 5924 5921 5917 5914 5907 5901 5895
5872 5872 5874 5877 5879 5881 5884 5883 5889 5892 5896 5899 5905 5908 5913 5918 5922 5925 5929 5931 5932 5932 5934 5934 5935 5935 5935 5936 5936 5935 5934 5932 5931 5929 5926 5922 5920 5917 5913 5908 5902 5896 5889
5868 5869 5869 5872 5876 5878 5879 5882 5886 5890 5892 5895 5902 5905 5909 5913 5917 5921 5925 5926 5929 5930 5932 5932 5933 5933 5933 5933 5933 5932 5931 5930 5928 5925 5923 5920 5918 5915 5910 5904 5899 5893 5886
Wind_Speed
6 5 2 2 3 9 9 13 10 8 10 12 14 16 18 20 23 24 25 25 25 24 24 25 26 27 25 24 22 21 21 20 20 21 22 24 25 24 23 23 21 20 18
7 6 3 2 2 6 8 9 10 10 11 13 14 14 17 19 22 21 22 22 22 24 24 23 24 24 25 23 22 21 20 19 21 21 23 25 25 26 27 25 23 21 18
7 7 4 1 2 5 6 8 9 10 10 13 13 13 13 16 17 18 19 21 22 25 25 26 23 23 25 24 21 19 19 19 20 21 23 22 23 24 25 24 25 23 19
7 6 7 2 1 3 4 6 6 10 8 10 10 11 12 15 16 17 17 20 22 24 25 25 24 22 22 23 21 18 17 18 19 19 20 20 21 23 21 21 26 26 23
11 11 10 5 4 3 3 5 7 9 7 6 5 7 12 14 14 13 14 16 20 21 23 26 25 23 20 20 20 16 15 17 19 20 19 19 19 18 19 22 25 27 27
10 15 12 9 7 4 4 4 5 7 8 6 4 5 9 12 12 13 16 16 17 20 21 24 24 23 21 20 19 14 15 16 19 21 19 17 18 18 15 21 21 24 26
12 14 16 14 10 6 5 3 3 6 8 4 5 4 6 9 10 11 14 13 13 16 20 24 22 20 20 21 21 15 14 15 16 17 20 20 17 17 18 19 16 17 19
13 13 19 17 12 9 7 6 4 3 7 5 2 3 5 6 7 9 13 13 14 17 18 20 20 18 19 19 19 16 14 14 13 14 15 14 15 12 13 15 18 15 18
12 12 16 17 15 13 10 6 5 5 5 8 6 1 2 5 7 7 10 11 12 16 17 19 19 18 18 16 18 18 15 14 12 12 12 11 10 9 9 11 13 13 13
12 15 14 20 18 15 12 10 6 6 6 5 5 5 2 3 5 6 9 9 13 17 17 16 18 17 16 15 18 17 14 14 12 10 9 9 8 8 9 10 11 12 13
11 13 17 20 20 19 16 12 10 7 9 9 9 6 4 5 2 4 7 8 10 12 15 15 17 16 17 17 16 17 15 12 12 11 9 8 9 9 8 9 9 10 10
10 12 14 17 22 21 19 17 14 12 10 10 13 11 7 8 3 3 5 9 11 13 14 15 16 15 15 14 16 17 15 12 10 9 9 8 6 7 7 7 8 9 10
11 13 14 17 20 22 22 16 19 19 14 14 17 14 9 9 4 3 7 9 10 12 13 15 14 13 12 12 14 14 16 14 13 11 10 8 8 7 7 7 9 11 12
11 14 16 18 20 24 24 24 19 23 18 15 19 16 12 10 6 3 4 8 9 11 14 15 13 10 10 11 14 13 16 16 15 14 15 15 14 12 10 10 13 17 20
10 14 15 17 17 18 22 24 25 25 22 17 24 22 16 13 9 4 3 7 8 9 12 13 11 8 8 7 12 15 17 19 16 16 16 15 15 14 15 17 19 23 25
11 13 16 16 16 18 16 17 20 29 26 20 24 21 18 14 10 4 1 4 7 11 10 9 6 5 6 8 10 13 19 19 19 17 18 16 14 14 14 16 19 21 22
13 14 16 17 18 21 19 16 14 27 27 24 21 24 18 15 11 6 4 2 7 11 11 7 6 7 6 6 8 15 16 14 16 17 16 15 14 14 14 15 16 17 17
16 16 18 20 21 20 21 20 16 15 30 28 25 29 21 16 13 9 8 4 6 9 9 5 7 7 6 6 11 11 13 14 15 17 15 15 15 15 16 18 16 16 17
17 19 19 22 22 23 22 21 19 16 24 35 29 28 23 19 15 10 7 6 5 8 7 4 6 6 6 7 9 11 10 12 15 17 14 15 15 16 19 21 20 18 17
20 20 20 24 24 24 25 22 20 16 19 28 24 34 24 19 16 12 9 5 3 5 4 4 6 7 7 6 8 8 10 11 12 11 13 13 16 19 20 20 17 16 16
24 22 19 23 24 25 29 21 20 17 16 11 29 40 25 21 17 15 11 6 3 3 3 5 5 6 6 7 7 6 7 9 9 10 11 13 17 19 20 21 22 20 22
29 25 23 24 24 25 29 22 20 17 14 11 35 35 19 23 19 16 12 9 4 2 4 4 5 3 5 6 7 8 7 9 9 10 11 15 17 20 22 23 26 27 26
22 25 24 25 22 25 26 23 16 16 13 20 37 30 24 25 21 19 15 10 4 2 4 4 4 3 4 6 3 5 6 7 7 10 12 13 16 19 21 22 24 25 26
14 18 21 22 20 22 24 26 20 18 14 28 40 28 28 26 23 20 17 12 8 5 5 4 5 5 4 3 4 4 2 4 6 8 11 16 19 19 21 20 24 27 30
12 14 16 20 20 22 21 17 19 18 22 31 27 22 27 27 23 21 18 15 10 7 5 5 5 6 6 4 3 1 3 5 9 12 16 19 21 22 23 26 27 33 36
10 12 16 17 17 20 24 28 20 21 20 34 41 25 26 26 23 23 20 18 14 9 8 6 5 5 4 3 3 4 6 9 11 14 16 19 20 23 22 27 30 35 36
Wind_Direction
256 276 331 82 90 84 71 80 52 87 89 83 77 71 64 60 57 53 51 48 47 46 46 45 44 47 50 58 61 61 61 57 55 59 56 54 51 49 49 50 51 53 55
246 246 231 244 96 90 83 74 100 104 107 85 69 65 62 58 57 50 50 49 48 44 43 41 43 44 47 50 59 64 66 63 54 52 58 53 48 50 50 50 50 50 48
236 252 266 247 130 83 73 75 108 103 92 96 79 72 58 54 53 54 52 48 50 46 44 41 40 40 44 46 49 56 62 62 60 55 58 50 51 49 45 47 51 53 52
230 246 264 219 179 111 93 88 112 104 93 93 87 77 68 65 58 49 57 49 48 45 42 42 43 41 43 43 43 46 54 63 60 61 57 50 52 53 57 55 60 65 61
223 226 234 231 221 155 131 94 125 125 117 85 82 77 78 72 64 59 61 45 44 46 39 41 38 37 38 40 39 45 54 65 60 65 59 58 63 63 68 64 67 73 72
220 224 219 215 210 194 151 102 119 127 129 138 112 57 58 57 49 45 53 45 31 33 37 38 39 34 32 39 40 49 58 66 71 69 68 68 68 67 75 68 68 68 66
218 237 233 219 207 194 186 158 120 141 119 146 111 72 49 46 45 39 54 46 44 34 30 32 34 34 30 39 45 55 63 74 76 74 68 61 59 67 61 66 70 64 66
235 242 229 210 214 200 207 182 185 173 163 157 151 90 17 23 36 39 38 33 34 33 34 33 28 30 31 37 48 59 65 66 67 63 62 59 59 62 57 62 67 71 75
240 235 223 207 213 209 211 205 206 188 180 176 236 285 358 356 13 36 45 22 31 35 33 28 26 24 25 36 48 57 64 63 60 55 49 51 52 58 57 50 55 60 46
241 230 217 214 210 215 216 221 213 221 200 211 198 246 296 338 10 23 47 37 19 24 33 30 29 20 23 38 47 60 72 70 69 57 47 55 54 56 48 41 35 24 24
242 242 238 226 219 216 212 220 228 222 213 222 209 222 256 285 332 4 31 48 30 18 27 29 31 23 27 43 46 52 73 75 68 61 54 60 55 51 43 35 27 18 15
249 248 241 235 225 226 225 226 231 234 224 215 217 224 249 261 295 351 48 42 25 8 30 27 26 24 32 47 50 52 60 70 67 63 66 63 54 42 28 22 19 7 3
245 243 243 240 234 235 236 243 238 230 225 218 232 213 226 250 264 343 47 52 29 7 23 29 24 26 33 52 55 60 57 56 54 56 64 61 57 52 38 28 15 8 5
255 247 246 248 243 239 240 248 241 226 218 221 224 218 225 231 228 289 41 53 37 13 8 19 24 35 39 57 60 57 54 55 60 62 66 65 68 60 50 35 26 13 4
260 260 251 251 250 237 244 248 239 229 213 213 204 233 228 221 224 247 89 61 36 20 1 16 16 41 44 55 59 57 53 52 56 59 61 56 51 41 29 15 6 9 12
243 256 259 251 251 244 252 249 253 206 210 213 217 234 227 217 208 239 85 66 31 17 358 11 23 75 76 73 63 64 62 58 57 53 56 53 48 37 24 16 15 13 8
243 245 253 248 246 254 245 246 242 207 216 217 225 224 225 221 212 189 174 52 25 8 360 25 70 106 84 89 70 72 65 61 56 56 53 50 46 35 26 18 11 7 359
261 257 250 250 243 240 243 238 236 227 222 220 209 211 225 217 221 192 173 119 25 20 13 47 92 109 110 76 71 82 69 58 52 49 41 37 32 17 12 9 1 1 7
264 265 260 250 245 242 242 235 236 244 227 217 211 224 218 214 210 206 178 119 36 25 30 86 100 96 90 81 90 89 74 56 53 46 37 32 29 28 21 12 7 6 5
260 264 262 252 244 243 242 229 231 248 244 229 217 217 211 213 207 199 183 137 56 41 58 103 109 105 92 90 84 73 56 53 54 53 41 36 33 22 16 9 5 1 351
255 262 255 252 246 240 248 217 227 233 247 242 210 217 205 210 205 194 186 156 77 38 107 125 121 114 104 82 78 74 76 75 66 46 36 30 25 16 10 3 359 354 344
262 253 245 242 246 242 246 220 224 228 243 255 199 203 204 210 203 194 187 180 148 100 123 119 167 124 71 89 89 92 103 79 58 39 16 16 14 7 2 357 350 355 351
261 247 243 237 247 250 248 244 213 224 236 209 200 203 208 207 204 193 197 189 184 134 143 161 168 147 125 137 80 85 73 58 26 15 3 357 358 358 359 359 1 356 354
257 244 242 244 251 255 256 260 218 218 226 198 202 205 204 205 206 199 200 190 190 171 147 137 177 186 174 164 145 143 103 10 355 347 353 351 359 2 6 356 347 350 348
245 246 246 242 242 250 248 217 219 214 211 191 197 207 206 207 206 201 203 193 194 181 171 148 160 153 146 168 196 242 331 325 330 345 350 348 353 353 4 1 354 358 355
250 244 245 240 242 249 249 250 219 217 211 207 193 216 214 207 206 203 208 198 201 196 200 179 184 174 162 187 248 286 314 325 331 338 342 338 345 352 354 352 357 356 352